AirNav   Everest Fuels
 
 831 users online  

70J Cairo-Grady County Airport
Cairo, Georgia, USA

GOING TO CAIRO?


FAA INFORMATION EFFECTIVE 26 MARCH 2020

Location

FAA Identifier: 70J
Lat/Long: 30-53-16.7000N 084-09-17.0000W
30-53.278333N 084-09.283333W
30.8879722,-84.1547222
(estimated)
Elevation: 263.7 ft. / 80.4 m (surveyed)
Variation: 04W (2010)
From city: 3 miles E of CAIRO, GA
Time zone: UTC -4 (UTC -5 during Standard Time)
Zip code: 31728

Airport Operations

Airport use: Open to the public
Activation date: 01/1947
Control tower: no
ARTCC: JACKSONVILLE CENTER
FSS: MACON FLIGHT SERVICE STATION
NOTAMs facility: MCN (NOTAM-D service available)
Attendance: MON-FRI 0900-1600
Wind indicator: lighted
Segmented circle: yes
Lights: MIRL RY 13/31 AND PAPI RYS 13 & 31 OPER CONT DUSK-0000; AFTER 0000 ACTVT - CTAF.
Beacon: white-green (lighted land airport)
Operates sunset to sunrise.

Airport Communications

CTAF/UNICOM: 122.7
TALLAHASSEE APPROACH: 128.7 [0645-2300]
TALLAHASSEE DEPARTURE: 128.7 [0645-2300]
WX AWOS-3PT at TVI (14 nm E): 119.175 (229-225-4336)
WX AWOS-3T at CXU (20 nm N): 118.675 (229-336-0744)
  • APCH/DEP SVC PRVDD BY JAX ARTCC ON FREQS 128.625/379.175 (TALLAHASSEE RCAG) WHEN TALLAHASSEE APCH CTL CLSD.

Nearby radio navigation aids

VOR radial/distance  VOR name  Freq  Var
SZWr028/22.9SEMINOLE VORTAC117.5002E
GEFr316/27.8GREENVILLE VORTAC109.0001E

 
NDB name  Hdg/Dist  Freq  Var  ID
CAIDYat field33804WCYR -.-. -.-- .-.
PATON261/17.424505WGTP --. - .--.
WILLIS109/19.735904WLYZ .-.. -.-- --..
CAMILLA173/20.136905WCXU -.-. -..- ..-

Airport Services

Fuel available: 100LL
FUEL AVAILABLE DURING ATTENDED HOURS
Parking: tiedowns
Airframe service: MAJOR
Powerplant service: MAJOR
Bottled oxygen: NONE
Bulk oxygen: NONE

Runway Information

Runway 13/31

Dimensions: 4000 x 75 ft. / 1219 x 23 m
Surface: asphalt, in good condition
Weight bearing capacity: 
Single wheel: 12.0
Runway edge lights: medium intensity
RUNWAY 13  RUNWAY 31
Latitude: 30-53.446492N30-53.110713N
Longitude: 084-09.613343W084-08.954793W
Elevation: 263.6 ft.236.2 ft.
Traffic pattern: leftleft
Runway heading: 125 magnetic, 121 true305 magnetic, 301 true
Markings: nonprecision, in good conditionnonprecision, in good condition
Visual slope indicator: 2-light PAPI on left (3.50 degrees glide path)2-light PAPI on left (3.00 degrees glide path)
Touchdown point: yes, no lightsyes, no lights
Obstructions: 36 ft. trees, 1136 ft. from runway, 333 ft. left of centerline, 26:1 slope to clear15 ft. trees, 201 ft. from runway, 126 ft. left of centerline
15' TREES, 150' - 250' L, 150' - 200' FROM E.O.R.

Airport Ownership and Management from official FAA records

Ownership: Publicly-owned
Owner: CITY OF CAIRO
BOX 29
CAIRO, GA 39828
Phone 229-377-1722
Manager: CHRIS ADDLETON, CITY MGR
PO BOX 29, 259 EDNA LANE
CAIRO, GA 39828
Phone 229-377-6700

Airport Operational Statistics

Aircraft based on the field: 12
Single engine airplanes: 11
Gliders airplanes: 1
    
Aircraft operations: avg 32/day *
68% local general aviation
30% transient general aviation
2% military
* for 12-month period ending 31 December 2019

Additional Remarks

FOR CD CTC TALLAHASSEE APCH AT 850-942-8311, WHEN APCH CLSD CTC JACKSONVILLE ARTCC AT 904-845-1592.

Instrument Procedures

NOTE: All procedures below are presented as PDF files. If you need a reader for these files, you should download the free Adobe Reader.

NOT FOR NAVIGATION. Please procure official charts for flight.
FAA instrument procedures published for use from 26 March 2020 at 0901Z to 23 April 2020 at 0900Z.

 
IAPs - Instrument Approach Procedures
RNAV (GPS) RWY 13   download (213KB)
RNAV (GPS) RWY 31   download (218KB)
NDB RWY 13   download (182KB)
NOTE: Special Take-Off Minimums/Departure Procedures apply   download (189KB)

Other nearby airports with instrument procedures:

KTVI - Thomasville Regional Airport (14 nm E)
KCXU - Camilla-Mitchell County Airport (20 nm N)
KMGR - Moultrie Municipal Airport (22 nm NE)
KBGE - Decatur County Industrial Air Park (25 nm W)
2J9 - Quincy Municipal Airport (27 nm SW)
 
Loc | Ops | Rwys | IFR | FBO | Links
Com | Nav | Svcs | Stats | Notes
Area around 70J (Cairo-Grady County Airport)
 
Road maps at: MapQuest Bing Google
 
Aerial photo
WARNING: Photo may not be current or correct
Aerial photo of 70J (Cairo-Grady County Airport)
Photo courtesy of AirNav, LLC
Photo taken 03-Feb-2013
looking east.

Do you have a better or more recent aerial photo of Cairo-Grady County Airport that you would like to share? If so, please send us your photo.

 
Sectional chart

 
Airport distance calculator
Flying to Cairo-Grady County Airport? Find the distance to fly.

From to 70J

Sunrise and sunset
Times for 07-Apr-2020
 Local
(UTC-4)
 Zulu
(UTC)
Morning civil twilight06:5410:54
Sunrise07:1811:18
Sunset19:5923:59
Evening civil twilight20:2400:24

Current date and time
Zulu (UTC)  08-Apr-2020 00:13:41
Local (UTC-4)  07-Apr-2020 20:13:41
 
METAR
KTVI 
14nm E 
072355Z AUTO 21007KT 10SM SCT075 SCT090 OVC110 25/15 A3002 RMK AO2
KCXU 
20nm N 
072355Z AUTO 09004KT 10SM BKN050 OVC060 25/18 A2999 RMK AO1 T02470184 10296 20245
KMGR 
22nm NE 
072355Z AUTO 00000KT 10SM BKN080 25/16 A3001 RMK AO2
KBGE 
25nm W 
072355Z AUTO 22007KT 10SM BKN100 BKN120 26/18 A2998 RMK AO2 T02620178 10300 20261 403000165
K2J9 
27nm SW 
072355Z AUTO 19009KT 10SM CLR 25/18 A3001 RMK AO2
TAF
KTLH 
31nm S 
071720Z 0718/0818 20008KT P6SM SCT035 SCT250 FM080900 00000KT 6SM BR SCT005 BKN040 FM081500 26006KT P6SM BKN035
NOTAMs
Click for the latest NOTAMs
NOTAMs are issued by the DoD/FAA and will open in a separate window not controlled by AirNav.

 

 
 

Would you like to see your business listed on this page?

 If your business provides an interesting product or service to pilots, flight crews, aircraft, or users of the Cairo-Grady County Airport, you should consider listing it here.  To start the listing process, click on the button below
 
Add a business
 

Other Pages about Cairo-Grady County Airport

Update a link
 
Copyright © AirNav, LLC. All rights reserved. Privacy Policy  Contact